Location: NCO
(38.4212°N, 77.1417°W)
Time: 04:30:55
(UTC-04:00)

BlueWalker 3 - Visible Passes

Search period start: 21 May 2026 00:00
Search period end: 31 May 2026 00:00
Orbit: 447 x 457 km, 53.2° (Epoch: 20 May)

Date Brightness Start Highest point End Pass type
(mag) Time Alt. Az. Time Alt. Az. Time Alt. Az.
21 May 5.3 03:07:27 10° N 03:07:59 10° NNE 03:08:32 10° NNE visible
21 May 3.4 04:42:54 10° NW 04:46:13 36° NE 04:49:32 10° ESE visible
21 May 1.8 21:32:33 10° SSW 21:35:58 49° SE 21:39:24 10° ENE visible
21 May 4.3 23:10:44 10° W 23:13:32 21° NNW 23:16:20 10° NNE visible
22 May 3.9 04:06:12 10° NNW 04:09:19 28° NNE 04:12:26 10° E visible
22 May 2.3 20:55:57 10° SSW 20:59:11 34° SE 21:02:26 10° ENE visible
22 May 4.0 22:33:32 10° W 22:36:36 27° NNW 22:39:39 10° NNE visible
23 May 4.3 03:29:31 10° NNW 03:32:23 23° NNE 03:35:16 10° E visible
23 May 2.0 05:06:32 10° WNW 05:09:56 44° SW 05:13:18 10° SSE visible
23 May 3.5 21:56:25 10° WSW 21:59:41 34° NW 22:02:57 10° NNE visible
24 May 4.6 02:52:51 10° NNW 02:55:26 18° NNE 02:58:00 10° ENE visible
24 May 1.6 04:29:36 10° NW 04:33:07 65° SW 04:36:37 10° SE visible
24 May 2.9 21:19:21 10° WSW 21:22:47 45° NW 21:26:12 10° NE visible
24 May 5.2 22:59:41 10° NW 23:00:54 11° NNW 23:02:07 10° N visible
25 May 4.8 02:16:15 10° NNW 02:18:27 15° NNE 02:20:39 10° ENE visible
25 May 1.6 03:52:45 10° NW 03:56:17 88° NE 03:59:49 10° SE visible
25 May 5.0 22:22:05 10° NW 22:23:52 13° NNW 22:25:40 10° N visible
26 May 5.0 01:39:40 10° N 01:41:26 13° NNE 01:43:12 10° NE visible
26 May 2.2 03:15:55 10° NW 03:24:49 - SE 03:18:58 55° N visible
26 May4.404:59:14SSW04:59:14SSW04:52:07WNWvisible
26 May 4.8 21:44:38 10° WNW 21:46:51 16° NNW 21:49:05 10° NNE visible
27 May 5.0 01:03:12 10° N 01:04:24 11° NNE 01:05:36 10° NE visible
27 May 4.2 02:39:06 10° NW 02:40:05 17° NNW 02:40:05 17° NNW visible
27 May 4.7 21:07:16 10° WNW 21:09:51 19° NNW 21:12:26 10° NNE visible
28 May 4.5 02:02:20 10° NNW 02:03:12 16° NNW 02:03:12 16° NNW visible
29 May 4.5 01:25:36 10° NNW 01:26:46 17° NNW 01:26:46 17° NNW visible
30 May 4.5 00:48:52 10° NNW 00:50:33 18° N 00:50:33 18° N visible
30 May 5.1 20:56:31 10° NNW 20:57:09 10° NNW 20:57:47 10° N visible
